Powrót do katalogu

SL-8 DEB

AktywnyLEO
NORAD 21943·DEBRIS·🇷🇺 Russia

Wystrzelony Feb 12, 1991 z Plesetsk Cosmodrome

Loading…

Następne Przeloty (najbliższe 24 godziny)

TLE

ŚwieżeSource: Space-Track

Epoka: Sep 14, 2026, 07:51 UTC

1 21943U 91009CE  26257.32744311 -.00000020  00000-0 -44372-4 0  9993
2 21943  73.9576  15.6000 0137580 306.4553  80.6883 12.19268820580881

Śledź SL-8 DEB w czasie rzeczywistym z AllMySat

Download on the App Store